Погода в Уоррагуле

Австралия     38°09′44″S   145°55′50″E
темп.,
°C
ветер,
м/с
пор.,
м/с
влажн.,
%
обл.,
%
осадки,
мм/ч
давл.,
гПа
погр.,
м
26 февраля, пт
пт2623:00+12зюз288297 0.4 1012864
02:00+8з148824 0.0 1012114
05:00+7сз119437 0.0 101129
08:00+11сз148495 0.1 1013219
11:00+16зюз245385 0.1 10141368
14:00+17з2449100 0.0 10131416
17:00+18ююз345063 0.0 10121094
20:00+12ю26750 0.0 1013230
27 февраля, сб
сб2723:00+8вюв11980 0.0 101523
02:00+7вюв12990 0.0 101443
05:00+8в18992 0.0 1013238
08:00+9в1794100 0.0 1014289
11:00+18всв255377 0.0 1013625
14:00+25сз1231100 0.0 10121539
17:00+22зюз2339100 0.0 1011949
20:00+16ююз0070100 0.0 101323
28 февраля, вс
вс2823:00+14всв298472 0.0 1014321
02:00+11всв24980 0.0 1013146
05:00+10всв12998 0.0 101243
08:00+11в129317 0.0 101384
11:00+25юз02359 0.0 1013650
14:00+28з362633 0.0 10122006
17:00+28зюз342865 0.0 10101533
20:00+19ююв12620 0.0 101040
1 марта, пн
пн123:00+14вюв11872 0.0 101231
02:00+12з01980 0.0 101123
05:00+11з119911 0.0 101030
08:00+12зсз129761 0.0 1011140
11:00+16з267779 0.0 1011764
14:00+20зюз475595 0.1 10111435
17:00+19зюз5104972 0.3 10111742
20:00+13юз4108087 0.3 10131124
2 марта, вт
вт223:00+9з2107852 0.3 1016573
02:00+10зюз2873100 0.1 1016913
05:00+7юз129470 0.2 101670
08:00+8з148611 0.0 1018199
11:00+12ююз265952 0.1 10191381
14:00+14ююз3554100 0.1 10181463
17:00+16ююз354767 0.1 10171472
20:00+10юз16718 0.0 1019210